sat.trackr.live / text

‹ back to catalog

FFLY03

NORAD 65319 · 2025-188E

PAYLOAD ACTIVE UNKNOWN

§ Identity

Operator
Country
IND
Launch date
2025-08-26
Launch site
AFWTR
Launch vehicle
Mass (kg)
RCS (m²)

External: N2YO · Heavens-Above · Gunter

§ Orbital elements

Epoch: 2026-09-20T21:54:45.935424Z

Period
96.46 min
Inclination
97.7247°
Eccentricity
0.0008834
Mean motion
14.92867820 rev/d
Perigee alt
582.8 km
Apogee alt
595.2 km
Semi-major
6,967.1 km
B*
5.6014e-5
RAAN
337.3292°
Arg perigee
139.0639°
Mean anomaly
221.1245°
Rev number
5,819

§ Raw data

FFLY031 65319U 25188E   26263.91303166  .00000525  00000+0  56014-4 0  99972 65319  97.7247 337.3292 0008834 139.0639 221.1245 14.92867820 58192

JSON: /api/v1/satellites/65319 · /tle

For live sub-satellite position, see the globe view (requires WebGL).

§ Visibility from observer

Set your observer location to see the next 7 days of passes ≥ 10°. The values pass through the URL so the page stays shareable.

No JS? Fill the form by hand. The geolocation button needs JavaScript.